Orbital Elements at Epoch 2459000.5 (2020-May-31.0) TDB
Reference: JPL 4 (heliocentric ecliptic J2000)
Element | Value | Uncertainty (1-sigma) | Units |
e | .9632224695564043 | 0.0007391 | |
a | 90.59442771344051 | 1.8056 | au |
q | 3.331839323251185 | 0.00083419 | au |
i | 45.63217313397037 | 0.012391 | deg |
node | 223.545100373479 | 0.0086457 | deg |
peri | 322.4961437489926 | 0.011454 | deg |
M | 8.788469707420299 | 0.26279 | deg |
tp | 2451311.649528709801 (1999-May-13.14952871) | 0.081321 | TDB |
period | 314956.5580600909 862.30 | 9416 25.78 | d yr |
n | .001143014777077019 | 3.4172e-05 | deg/d |
Q | 177.8570161036298 | 3.5448 | au |
|
| | Orbit Determination Parameters
Additional Information
|